Regional Weather Roundup
Issued by NWS Mt. Holly, NJ

Home | Current Version | Previous Version | Text Only | Print | Product List | Glossary On
Versions: 1 2 3 4 5 6 7 8 9 10 11 12 13 14 15 16 17 18 19 20 21 22 23 24 25 26 27 28 29 30 31 32 33 34 35 36 37 38 39 40 41 42 43 44 45 46 47 48 49 50
844
ASUS41 KPHI 281712
RWRPHI

REGIONAL WEATHER ROUNDUP
NATIONAL WEATHER SERVICE MOUNT HOLLY NJ
100 PM EDT SUN AUG 28 2016

NOTE:  "FAIR" INDICATES FEW OR NO CLOUDS BELOW 12,000 FEET WITH NO
SIGNIFICANT WEATHER AND/OR OBSTRUCTIONS TO VISIBILITY.

 * = STATION DOES NOT REPORT PRECIPITATION (E.G. RAIN, SNOW, ETC.)
        OR FOG.

NJZ015>026-281800-
SOUTHERN NEW JERSEY

CITY           SKY/WX    TMP DP  RH WIND       PRES   REMARKS
POMONA         SUNNY     86  63  45 E9        30.25S
WILDWOOD*        N/A     84  67  56 E9        30.25S
MILLVILLE      MOSUNNY   86  66  51 S8        30.25S
WRIGHTSTOWN    SUNNY     86  67  52 NE5       30.21F
MOUNT HOLLY    SUNNY     87  66  49 CALM      30.24F
TRENTON        SUNNY     86  62  44 VRB6      30.24F

$$
NJZ001>014-281800-
NORTHERN NEW JERSEY

CITY           SKY/WX    TMP DP  RH WIND       PRES   REMARKS
SUSSEX         SUNNY     84  64  50 SW7       30.25F
ANDOVER*         N/A     83  62  49 VRB6      30.26F
MORRISTOWN     MOSUNNY   84  66  54 W3        30.25F
NEWARK         PTSUNNY   85  63  47 VRB7      30.24F
TETERBORO      SUNNY     86  58  38 VRB7      30.22F
CALDWELL       SUNNY     85  66  53 CALM      30.24F
SOMERVILLE     SUNNY     85  65  51 CALM      30.23F
ALLAIRE*       SUNNY     83  65  54 E9        30.27S
TOMS RIVER*    SUNNY     86  64  47 SE9       30.26S

$$
PAZ043-044-047-054-055-060>062-066>071-281800-
EASTERN PENNSYLVANIA

CITY           SKY/WX    TMP DP  RH WIND       PRES   REMARKS
PHILADELPHIA   MOSUNNY   88  63  43 CALM      30.24F
NORTH PHILA    MOSUNNY   88  65  46 E8        30.26F HX  90
BLUE BELL*     SUNNY     86  63  45 S5        30.24F
DOYLESTOWN     SUNNY     86  62  44 CALM      30.25F
QUAKERTOWN*    SUNNY     86  59  39 CALM      30.27S
POTTSTOWN      SUNNY     84  63  49 SW8       30.27F
LANCASTER      SUNNY     86  65  49 SE7       30.25F
COATESVILLE    SUNNY     84  63  48 VRB5      30.28F
READING        SUNNY     86  59  39 S7        30.24S
ALLENTOWN      SUNNY     87  59  38 SW8       30.25F
MOUNT POCONO   SUNNY     78  58  49 S12       30.31F
WILKES BARRE   SUNNY     85  60  42 SW10      30.25F

$$
DEZALL-MDZ008-012-015-019-020-281800-
DELAWARE AND EASTERN MARYLAND

CITY           SKY/WX    TMP DP  RH WIND       PRES   REMARKS
WILMINGTON     SUNNY     84  66  54 S6        30.25F
DOVER          SUNNY     83  73  71 VRB5      30.23F
GEORGETOWN     NOT AVBL
EASTON         SUNNY     86  72  62 E6        30.27F HX  92
PATUXENT       MOSUNNY   84  67  56 E5        30.23F
OCEAN CITY     SUNNY     83  68  60 NE12      30.23S
WALLOPS ISLAND SUNNY     85  58  39 NE15      30.22F
CAMBRIDGE      MOSUNNY   82  64  54 E8        30.22F
SALISBURY      SUNNY     85  62  46 E15       30.22F

$$
PAZ001-021-NYZ056-072-MDZ011-DCZ001-281800-
OTHER NEARBY LOCATIONS

CITY           SKY/WX    TMP DP  RH WIND       PRES   REMARKS
HARRISBURG     MOSUNNY   87  67  51 SE7       30.23F HX  90
STATE COLLEGE  SUNNY     82  70  65 S9        30.25F
WILLIAMSPORT   SUNNY     85  66  53 VRB3G18   30.21F
BINGHAMTON     PTSUNNY   79  64  60 SW15      30.24F
NEW YORK CITY  SUNNY     87  63  44 VRB3      30.27F
BALTIMORE      MOSUNNY   85  59  41 S5        30.23F
WASHINGTON DC  MOSUNNY   87  65  47 VRB3      30.23F

$$




USA.gov is the U.S. government's official web portal to all federal, state and local government web resources and services.